Torna al catalogo

STARLINK-34368

AttivoComunicazioniVLEO
NORAD 64311·PAYLOAD·🇺🇸 United States

Lanciato Jun 8, 2025 da Vandenberg Space Force Base

Loading…

Prossimi Passaggi (prossime 24 ore)

TLE

AggiornatoSource: CelesTrak SupGP

Epoca: Sep 15, 2026, 03:18 UTC

1 64311C 25123W   26258.13798611 -.00046022  00000+0 -16016-2 0  2586
2 64311  69.9999  75.1684 0003250 271.9919 194.3381 15.29589185    10

Traccia STARLINK-34368 in tempo reale con AllMySat

Download on the App Store